Location: Unspecified
(0.0000°N, 0.0000°E)
Time: 06:32:56
(UTC+00:00)

A-11 Canister half - Pass Details

Date: 21 November 2019
Orbit: 1515 x 1685 km, 47.2° (Epoch: 10 December)

Event Time Altitude Azimuth Distance (km) Brightness Sun altitude
Rises 23:41:56 0° 350° (N) 4,890 - -70.0°
Reaches altitude 10° 23:46:57 10° 10° (N) 3,878 - -70.0°
Maximum altitude 23:52:27 16° 45° (NE) 3,379 - -69.9°
Drops below altitude 10° 23:57:50 10° 80° (E) 3,809 - -69.8°
Sets 00:02:36 0° 100° (E) 4,761 - -69.6°
